SCOUT A DEB, 2226

Orbit data source: Space-Track

SCOUT A DEB, 2226 is space debris in LEO originally from a launch on Wed, 22 Dec 1965 UTC launched from the Air Force Western Test Range (AFWTR). Debris objects in space refer to the collection of defunct objects orbiting the Earth. Examples of debris include non-operational satellites, rocket bodies, and fragments generated from explosions, collisions, or faulty payload assembly.

Loading next visibility...
Identifier
2226, 1965-109D
Orbit
LEO
Last TLE update
3 days ago
Origin
Manufacturer
Unknown
Mission
Spacecraft
Bus & Motor
Unknown
Mass
Unknown
Launch date (UTC)
1965-12-22 (60 years ago)
Launch vehicle
Unknown
Launch site
Air Force Western Test Range (AFWTR)
Object type
Payload
Rocket body
Debris
Shape & HBR
Unknown
Radar Cross Section
Small (<0.1 m²)

Expand to show TLE details & history

TLE from 3 days ago
0 SCOUT A DEB
1 02226U 65109D   25180.17446445  .00000085  00000-0  95652-4 0  9998
2 02226  89.0663 340.3941 0246852 345.8839  13.5495 13.51153416906010
Epoch: 2025-06-29T04:11Z
TLE epoch observation values (Epoch: 2025-06-29T04:11:13.728Z)
Latitude
Longitude
0.08449°
Altitude
892.503 km
Speed
7.494 km/s
True Right ascension
22h 41m 34s
True Declination
0° 00' 00"
Sunlit
Object was in daylight at epoch
Visualization orbit readout
Latitude
-37.14487°
Longitude
-0.87717°
Altitude
904.181 km
Speed
7.487 km/s
Apparent Right ascension
22h 05m 14s
Apparent Declination
-38° 35' 54"
Sunlit
Object is in full shadow
Visualization observer readout
Local Sidereal Time
09:26:38
Azimuth
276.922° WNW
Elevation
-82.417°
Doppler factor
1
Orbital elements
Apogee altitude
1,248.803 km
Perigee altitude
881.329 km
Semi-major axis
7,443.203 km
Eccentricity
0.02469
Inclination
89.0663°
RAAN
340.3941°
Arg. of periapsis
345.8839°
True anomaly
Unknown
Mean anomaly
13.5495°
Eccentric anomaly
Unknown
Mean motion
3.3799 °/min
Orbital period
106.51 mins
BSTAR
0.000095652
Loading maneuver chart data...
Loading SW <> Apogee altitude chart data...
Loading historical data...
Loading historical data...
Loading historical data...
Loading historical data...
Loading historical data...
Loading historical data...
Loading historical data...

SCOUT A DEB Visibility forecast

Observer location: undefined°, undefined°

Span
Click to sort rows by Start time (UTC) header in descending order
Start Az.
Max El. time (UTC)
Max El. Az.
Max El.
End time (UTC)
End Az.
14 mins2025-07-01 22:31:19.583Z6.497° NNE2025-07-01 22:38:19.583Z91.15° ESE42.994°2025-07-01 22:45:19.583Z171.633° S
9 mins2025-07-02 00:20:19.583Z323.127° NNW2025-07-02 00:24:19.583Z283.696° WNW21.206°2025-07-02 00:29:19.583Z240.27° WSW
10 mins2025-07-02 10:30:19.583Z155.277° SSE2025-07-02 10:34:19.583Z98.25° ESE39.256°2025-07-02 10:40:19.583Z8.894° NNE
6 mins2025-07-02 12:19:19.583Z253.601° W2025-07-02 12:21:19.583Z277.665° WNW19.096°2025-07-02 12:25:19.583Z322.136° NNW
7 mins2025-07-02 21:39:19.583Z28.084° NE2025-07-02 21:44:19.583Z80.279° E27.51°2025-07-02 21:46:19.583Z107.079° ESE
|